Simultaneous Nadir Overpasses (SNOs) Predictions

Prediction of SNOs between GOES-16 and LANDSAT-8 Satellite Orbit:

Table of predicted SNOs for the next 14.0 days since TLE Epoch: 10/31/2025
Index Date Time (GOES-16) GOES-16 Lat,Lon LANDSAT-8 Lat,Lon Distance(km) Time Diff (sec)
1 11/02/2025 05:01:15 -0.05,-104.66 0.43,-102.57 238.92 80
2 11/02/2025 17:22:29 0.04,-104.70 0.71,-107.71 342.71 80
3 11/04/2025 17:10:19 0.04,-104.71 0.06,-104.76 6.55 80
4 11/06/2025 17:00:48 0.04,-104.70 -0.60,-101.81 329.40 80
5 11/07/2025 05:22:11 -0.04,-104.66 -0.51,-107.00 265.50 80
6 11/09/2025 05:07:18 -0.05,-104.65 0.05,-104.03 70.38 80
7 11/11/2025 04:55:07 -0.06,-104.64 0.70,-101.07 406.52 80
8 11/11/2025 17:16:22 0.05,-104.68 0.36,-106.23 175.84 80
9 11/13/2025 17:06:49 0.06,-104.68 -0.25,-103.27 161.25 80
10 11/14/2025 05:28:13 -0.05,-104.65 -0.84,-108.46 432.34 80
